FW7499 Weather Reports


time (UTC)temp
C
wind
direction
speed
KPH
gust
KPH
rain 1hr
cm
rain 24hr
cm
rain mn
cm
humidity
%
barometer
mb
20260509195003 25 318 4.8 14.5 0.00 0.00 0.00 30 1009.3
20260509194522 25 332 4.8 16.1 0.00 0.00 0.00 31 1009.2
20260509194004 24 313 4.8 16.1 0.00 0.00 0.00 36 1009.1
20260509193514 23 355 3.2 9.7 0.00 0.00 0.00 33 1009.1
20260509193007 23 343 1.6 9.7 0.00 0.00 0.00 31 1009.0
20260509192502 24 346 1.6 9.7 0.00 0.00 0.00 32 1009.0
20260509192002 23 338 1.6 9.7 0.00 0.00 0.00 32 1009.0
20260509191503 24 80 0.0 12.9 0.00 0.00 0.00 29 1008.9
20260509191006 25 24 6.4 14.5 0.00 0.00 0.00 30 1008.9
20260509190503 25 327 6.4 14.5 0.00 0.00 0.00 30 1009.0
20260509190012 25 344 1.6 8.0 0.00 0.00 0.00 29 1008.9
20260509185503 25 326 3.2 8.0 0.00 0.00 0.00 34 1008.8
20260509185010 25 301 1.6 9.7 0.00 0.00 0.00 32 1008.9
20260509184507 25 348 1.6 14.5 0.00 0.00 0.00 33 1008.9
20260509184009 24 344 4.8 14.5 0.00 0.00 0.00 29 1009.0
20260509183507 25 352 3.2 11.3 0.00 0.00 0.00 30 1008.9
20260509183004 25 348 3.2 8.0 0.00 0.00 0.00 31 1008.8
20260509182505 25 5 3.2 11.3 0.00 0.00 0.00 28 1008.9
20260509182006 25 302 4.8 12.9 0.00 0.00 0.00 30 1008.9
20260509181513 25 345 3.2 12.9 0.00 0.00 0.00 31 1008.8
20260509181006 25 321 4.8 12.9 0.00 0.00 0.00 34 1008.9
20260509180503 24 321 3.2 14.5 0.00 0.00 0.00 32 1008.8
20260509180008 23 309 3.2 14.5 0.00 0.00 0.00 33 1008.8
20260509175504 23 338 4.8 14.5 0.00 0.00 0.00 28 1008.8
20260509175004 23 9 3.2 12.9 0.00 0.00 0.00 35 1008.8
20260509174505 23 340 1.6 9.7 0.00 0.00 0.00 31 1008.8
20260509174003 23 338 3.2 9.7 0.00 0.00 0.00 35 1008.9
20260509173507 23 74 0.0 8.0 0.00 0.00 0.00 34 1008.9
20260509173018 23 19 0.0 4.8 0.00 0.00 0.00 31 1008.9
20260509172503 23 59 1.6 8.0 0.00 0.00 0.00 35 1009.0
20260509172006 23 314 1.6 12.9 0.00 0.00 0.00 38 1009.1
20260509171515 23 323 4.8 12.9 0.00 0.00 0.00 38 1009.1
20260509171004 23 320 3.2 12.9 0.00 0.00 0.00 31 1009.1
20260509170507 23 333 3.2 8.0 0.00 0.00 0.00 32 1009.2
20260509170020 23 338 1.6 6.4 0.00 0.00 0.00 34 1009.2
20260509165502 22 319 1.6 12.9 0.00 0.00 0.00 31 1009.1
20260509165007 22 331 3.2 12.9 0.00 0.00 0.00 37 1009.1
20260509164511 22 344 4.8 9.7 0.00 0.00 0.00 33 1009.1
20260509164004 22 296 3.2 11.3 0.00 0.00 0.00 36 1009.1
20260509163505 22 305 3.2 11.3 0.00 0.00 0.00 37 1009.0
20260509163012 22 306 4.8 11.3 0.00 0.00 0.00 36 1009.0
20260509162508 22 317 3.2 14.5 0.00 0.00 0.00 35 1008.9
20260509162007 21 342 6.4 14.5 0.00 0.00 0.00 34 1009.1
20260509161519 21 349 1.6 12.9 0.00 0.00 0.00 34 1008.9
20260509161009 21 5 4.8 16.1 0.00 0.00 0.00 35 1009.0
20260509160507 21 301 4.8 16.1 0.00 0.00 0.00 35 1008.9
20260509160023 22 341 4.8 12.9 0.00 0.00 0.00 38 1009.0
20260509155509 21 326 1.6 8.0 0.00 0.00 0.00 39 1009.0
20260509155008 21 340 3.2 12.9 0.00 0.00 0.00 38 1009.0
20260509154523 21 13 3.2 19.3 0.00 0.00 0.00 39 1009.2
20260509154008 21 341 8.0 19.3 0.00 0.00 0.00 38 1009.3
20260509153504 21 341 8.0 14.5 0.00 0.00 0.00 37 1009.3
20260509153015 21 306 6.4 14.5 0.00 0.00 0.00 38 1009.1
20260509152504 21 334 0.0 17.7 0.00 0.00 0.00 40 1009.1
20260509152009 21 333 1.6 17.7 0.00 0.00 0.00 39 1009.1
20260509151519 21 342 3.2 12.9 0.00 0.00 0.00 40 1009.1
20260509151007 20 337 4.8 12.9 0.00 0.00 0.00 42 1009.1
20260509150508 20 360 6.4 20.9 0.00 0.00 0.00 42 1009.2
20260509150013 20 286 6.4 20.9 0.00 0.00 0.00 41 1008.8
20260509145509 21 355 6.4 16.1 0.00 0.00 0.00 40 1009.0
20260509145010 20 306 1.6 6.4 0.00 0.00 0.00 36 1008.1
20260509144513 20 355 0.0 6.4 0.00 0.00 0.00 40 1007.9
20260509144007 19 234 0.0 6.4 0.00 0.00 0.00 40 1007.9
20260509143509 18 297 1.6 12.9 0.00 0.00 0.00 43 1007.9
20260509143012 18 343 0.0 12.9 0.00 0.00 0.00 42 1008.0
20260509142503 18 5 0.0 11.3 0.00 0.00 0.00 44 1008.1
20260509142009 18 219 0.0 11.3 0.00 0.00 0.00 43 1008.1
20260509141530 18 285 1.6 8.0 0.00 0.00 0.00 45 1008.1
20260509141008 17 292 0.0 6.4 0.00 0.00 0.00 46 1008.1
20260509140505 18 193 0.0 3.2 0.00 0.00 0.00 45 1008.0
20260509140021 17 332 0.0 3.2 0.00 0.00 0.00 50 1008.0
20260509135507 17 332 0.0 6.4 0.00 0.00 0.00 51 1008.1
20260509135011 16 243 0.0 6.4 0.00 0.00 0.00 52 1008.1
20260509134504 15 260 0.0 3.2 0.00 0.00 0.00 54 1008.1
20260509134003 15 306 0.0 3.2 0.00 0.00 0.00 53 1008.0
20260509133503 15 320 0.0 1.6 0.00 0.00 0.00 53 1008.0
20260509133003 15 320 0.0 1.6 0.00 0.00 0.00 56 1008.0
20260509132505 15 319 0.0 3.2 0.00 0.00 0.00 61 1007.9
20260509132002 13 319 0.0 3.2 0.00 0.00 0.00 68 1007.9
20260509131508 12 321 0.0 0.0 0.00 0.00 0.00 74 1008.0
20260509131005 12 321 0.0 0.0 0.00 0.00 0.00 78 1008.0
20260509130504 12 321 0.0 0.0 0.00 0.00 0.00 78 1008.0
20260509130016 11 321 0.0 1.6 0.00 0.00 0.00 78 1007.9
20260509125509 11 321 0.0 1.6 0.00 0.00 0.00 80 1007.9
20260509125005 10 321 0.0 1.6 0.00 0.00 0.00 83 1007.9
20260509124504 10 321 0.0 1.6 0.00 0.00 0.00 84 1008.0
20260509124003 10 321 0.0 1.6 0.00 0.00 0.00 81 1008.0
20260509123503 9 321 0.0 1.6 0.00 0.00 0.00 83 1008.0
20260509123007 8 321 0.0 0.0 0.00 0.00 0.00 84 1007.9
20260509122503 8 321 0.0 0.0 0.00 0.00 0.00 81 1007.8
20260509122003 8 321 0.0 1.6 0.00 0.00 0.00 78 1007.9
20260509121505 8 321 0.0 1.6 0.00 0.00 0.00 77 1007.9
20260509121003 8 321 0.0 0.0 0.00 0.00 0.00 78 1007.9
20260509120506 7 321 0.0 0.0 0.00 0.00 0.00 79 1007.9
20260509120005 7 321 0.0 0.0 0.00 0.00 0.00 79 1007.9
20260509115506 7 321 0.0 0.0 0.00 0.00 0.00 80 1007.8
20260509115011 7 321 0.0 0.0 0.00 0.00 0.00 79 1007.7
20260509114503 7 321 0.0 0.0 0.00 0.00 0.00 79 1007.6
20260509114002 7 321 0.0 0.0 0.00 0.00 0.00 80 1007.6
20260509113503 7 321 0.0 0.0 0.00 0.00 0.00 79 1007.5
20260509113004 7 321 0.0 0.0 0.00 0.00 0.00 79 1007.6
20260509112504 7 321 0.0 0.0 0.00 0.00 0.00 78 1007.5
20260509112003 7 321 0.0 0.0 0.00 0.00 0.00 77 1007.5
20260509111508 7 321 0.0 0.0 0.00 0.00 0.00 76 1007.5
20260509111010 7 321 0.0 0.0 0.00 0.00 0.00 77 1007.4
20260509110502 7 321 0.0 0.0 0.00 0.00 0.00 78 1007.4
20260509110011 7 321 0.0 0.0 0.00 0.00 0.00 76 1007.4
20260509105503 7 321 0.0 0.0 0.00 0.00 0.00 76 1007.4
20260509105005 7 321 0.0 0.0 0.00 0.00 0.00 74 1007.5
20260509104523 7 321 0.0 0.0 0.00 0.00 0.00 74 1007.5
20260509104002 7 321 0.0 0.0 0.00 0.00 0.00 73 1007.6
20260509103505 7 321 0.0 0.0 0.00 0.00 0.00 72 1007.5
20260509103006 7 321 0.0 0.0 0.00 0.00 0.00 74 1007.5
20260509102505 7 321 0.0 0.0 0.00 0.00 0.00 74 1007.5
20260509102004 7 321 0.0 0.0 0.00 0.00 0.00 74 1007.4
20260509101504 7 321 0.0 0.0 0.00 0.00 0.00 74 1007.5
20260509101003 7 321 0.0 0.0 0.00 0.00 0.00 73 1007.4
20260509100504 7 321 0.0 0.0 0.00 0.00 0.00 73 1007.4
20260509100016 7 321 0.0 0.0 0.00 0.00 0.00 73 1007.4
20260509095504 7 321 0.0 0.0 0.00 0.00 0.00 72 1007.4
20260509095004 7 321 0.0 0.0 0.00 0.00 0.00 71 1007.4
20260509094508 8 321 0.0 0.0 0.00 0.00 0.00 70 1007.4
20260509094006 8 321 0.0 0.0 0.00 0.00 0.00 71 1007.4
20260509093503 8 321 0.0 0.0 0.00 0.00 0.00 70 1007.4
20260509093017 8 321 0.0 0.0 0.00 0.00 0.00 70 1007.4
20260509092508 8 321 0.0 0.0 0.00 0.00 0.00 70 1007.4
20260509092004 8 321 0.0 0.0 0.00 0.00 0.00 69 1007.4
20260509091513 8 321 0.0 0.0 0.00 0.00 0.00 69 1007.4
20260509091008 8 321 0.0 0.0 0.00 0.00 0.00 68 1007.4
20260509090504 8 321 0.0 0.0 0.00 0.00 0.00 67 1007.4
20260509090006 8 321 0.0 0.0 0.00 0.00 0.00 67 1007.4
20260509085503 8 321 0.0 0.0 0.00 0.00 0.00 67 1007.4
20260509085003 8 321 0.0 0.0 0.00 0.00 0.00 66 1007.4
20260509084509 9 321 0.0 0.0 0.00 0.00 0.00 66 1007.3
20260509084003 9 321 0.0 0.0 0.00 0.00 0.00 65 1007.2
20260509083509 9 321 0.0 0.0 0.00 0.00 0.00 67 1007.2
20260509083015 9 321 0.0 0.0 0.00 0.00 0.00 66 1007.2
20260509082503 9 321 0.0 0.0 0.00 0.00 0.00 65 1007.2
20260509082007 9 321 0.0 0.0 0.00 0.00 0.00 64 1007.3
20260509081512 10 321 0.0 0.0 0.00 0.00 0.00 64 1007.3
20260509081007 10 321 0.0 0.0 0.00 0.00 0.00 64 1007.3
20260509080507 10 321 0.0 0.0 0.00 0.00 0.00 63 1007.3
20260509080010 10 321 0.0 0.0 0.00 0.00 0.00 63 1007.2
20260509075506 10 321 0.0 0.0 0.00 0.00 0.00 62 1007.3
20260509075006 10 321 0.0 0.0 0.00 0.00 0.00 62 1007.4
20260509074508 10 321 0.0 0.0 0.00 0.00 0.00 61 1007.4
20260509074007 11 321 0.0 1.6 0.00 0.00 0.00 59 1007.4
20260509073503 11 321 0.0 1.6 0.00 0.00 0.00 60 1007.4
20260509073011 11 321 0.0 1.6 0.00 0.00 0.00 59 1007.4
20260509072507 11 321 0.0 0.0 0.00 0.00 0.00 60 1007.4
20260509072004 11 321 0.0 1.6 0.00 0.00 0.00 58 1007.4
20260509071506 11 321 0.0 1.6 0.00 0.00 0.00 59 1007.4
20260509071004 11 321 0.0 0.0 0.00 0.00 0.00 57 1007.4
20260509070507 11 321 0.0 0.0 0.00 0.00 0.00 57 1007.4
20260509070020 12 321 0.0 1.6 0.00 0.00 0.00 55 1007.5
20260509065511 12 321 0.0 1.6 0.00 0.00 0.00 54 1007.5
20260509065007 12 321 0.0 3.2 0.00 0.00 0.00 53 1007.5
20260509064528 12 321 0.0 3.2 0.00 0.00 0.00 53 1007.6
20260509064004 12 321 0.0 4.8 0.00 0.00 0.00 52 1007.6
20260509063506 13 321 0.0 4.8 0.00 0.00 0.00 51 1007.6
20260509063006 13 320 0.0 1.6 0.00 0.00 0.00 52 1007.7
20260509062508 13 320 0.0 1.6 0.00 0.00 0.00 52 1007.6
20260509062008 13 320 0.0 1.6 0.00 0.00 0.00 53 1007.7
20260509061532 13 320 0.0 1.6 0.00 0.00 0.00 53 1007.7
20260509061009 13 320 0.0 4.8 0.00 0.00 0.00 51 1007.6
20260509060507 13 320 0.0 4.8 0.00 0.00 0.00 50 1007.6
20260509060012 14 319 1.6 4.8 0.00 0.00 0.00 49 1007.7
20260509055507 14 309 1.6 4.8 0.00 0.00 0.00 49 1007.7
20260509055006 14 347 1.6 6.4 0.00 0.00 0.00 49 1007.7
20260509054511 15 348 1.6 6.4 0.00 0.00 0.00 49 1007.6
20260509054010 15 348 1.6 4.8 0.00 0.00 0.00 47 1007.6
20260509053507 15 340 3.2 6.4 0.00 0.00 0.00 46 1007.5
20260509053049 15 339 3.2 6.4 0.00 0.00 0.00 46 1007.5
20260509052507 15 330 3.2 8.0 0.00 0.00 0.00 46 1007.4
20260509052004 15 332 4.8 8.0 0.00 0.00 0.00 45 1007.4
20260509051527 15 322 4.8 8.0 0.00 0.00 0.00 45 1007.4
20260509051004 15 322 3.2 6.4 0.00 0.00 0.00 46 1007.4
20260509050507 15 292 1.6 4.8 0.00 0.00 0.00 46 1007.3
20260509050018 15 292 1.6 3.2 0.00 0.00 0.00 46 1007.3
20260509045505 15 292 1.6 3.2 0.00 0.00 0.00 47 1007.3
20260509045007 15 292 0.0 3.2 0.00 0.00 0.00 46 1007.2
20260509044524 15 292 1.6 3.2 0.00 0.00 0.00 46 1007.2
20260509044006 14 292 0.0 1.6 0.00 0.00 0.00 47 1007.2
20260509043509 14 292 0.0 1.6 0.00 0.00 0.00 50 1007.2
20260509043018 15 292 0.0 1.6 0.00 0.00 0.00 49 1007.2
20260509042512 15 292 0.0 1.6 0.00 0.00 0.00 50 1007.1
20260509042010 15 292 0.0 0.0 0.00 0.00 0.00 46 1007.2
20260509041517 15 292 0.0 0.0 0.00 0.00 0.00 45 1007.1
20260509041007 15 292 0.0 3.2 0.00 0.00 0.00 49 1007.1
20260509040511 15 292 0.0 3.2 0.00 0.00 0.00 48 1007.0
20260509040029 15 292 0.0 3.2 0.00 0.00 0.00 47 1007.0
20260509035502 15 292 0.0 3.2 0.00 0.00 0.00 48 1007.1
20260509035003 15 292 0.0 3.2 0.00 0.00 0.00 47 1007.1
20260509034506 15 291 0.0 0.0 0.00 0.00 0.00 46 1006.9
20260509034003 16 291 0.0 0.0 0.00 0.00 0.00 46 1006.9
20260509033506 16 291 0.0 0.0 0.00 0.00 0.00 40 1006.8
20260509033002 16 291 0.0 1.6 0.00 0.00 0.00 41 1006.8
20260509032503 16 291 0.0 1.6 0.00 0.00 0.00 45 1006.8
20260509032004 16 291 0.0 1.6 0.00 0.00 0.00 44 1006.8
20260509031505 16 292 0.0 1.6 0.00 0.00 0.00 47 1006.7
20260509031002 16 291 0.0 3.2 0.00 0.00 0.00 45 1006.7
20260509030509 16 290 0.0 3.2 0.00 0.00 0.00 47 1006.6
20260509030004 16 280 0.0 1.6 0.00 0.00 0.00 44 1006.5
20260509025503 16 280 0.0 1.6 0.00 0.00 0.00 41 1006.4
20260509025002 17 279 0.0 0.0 0.00 0.00 0.00 37 1006.3
20260509024504 17 279 0.0 0.0 0.00 0.00 0.00 36 1006.2
20260509024004 17 279 0.0 0.0 0.00 0.00 0.00 38 1006.2
20260509023504 17 279 0.0 0.0 0.00 0.00 0.00 35 1006.1
20260509023006 18 279 0.0 1.6 0.00 0.00 0.00 36 1006.0
20260509022505 18 279 0.0 1.6 0.00 0.00 0.00 35 1005.9
20260509022003 18 305 0.0 0.0 0.00 0.00 0.00 33 1005.9
20260509021508 19 305 0.0 0.0 0.00 0.00 0.00 33 1005.8
20260509021003 19 305 0.0 0.0 0.00 0.00 0.00 30 1005.7
20260509020504 19 305 0.0 0.0 0.00 0.00 0.00 30 1005.7
20260509020009 20 305 0.0 0.0 0.00 0.00 0.00 31 1005.6
20260509015504 20 305 0.0 1.6 0.00 0.00 0.00 32 1005.6
20260509015006 20 305 0.0 1.6 0.00 0.00 0.00 31 1005.6
20260509014508 20 305 0.0 1.6 0.00 0.00 0.00 31 1005.6
20260509014008 21 305 0.0 4.8 0.00 0.00 0.00 30 1005.6
20260509013502 21 305 1.6 6.4 0.00 0.00 0.00 29 1005.6
20260509013005 21 300 1.6 6.4 0.00 0.00 0.00 29 1005.5
20260509012502 21 296 1.6 4.8 0.00 0.00 0.00 29 1005.5
20260509012002 21 292 0.0 4.8 0.00 0.00 0.00 30 1005.5
20260509011509 21 337 0.0 4.8 0.00 0.00 0.00 30 1005.4
20260509011003 22 306 0.0 6.4 0.00 0.00 0.00 29 1005.4
20260509010503 22 297 1.6 8.0 0.00 0.00 0.00 30 1005.4
20260509010006 22 330 0.0 8.0 0.00 0.00 0.00 30 1005.3
20260509005505 22 306 3.2 6.4 0.00 0.00 0.00 31 1005.3
20260509005005 22 292 1.6 6.4 0.00 0.00 0.00 31 1005.3
20260509004501 22 326 1.6 11.3 0.00 0.00 0.00 32 1005.2
20260509004009 23 339 3.2 11.3 0.00 0.00 0.00 29 1005.2
20260509003507 23 302 3.2 12.9 0.00 0.00 0.00 30 1005.2
20260509003008 23 315 3.2 12.9 0.00 0.00 0.00 30 1005.2
20260509002505 23 329 6.4 12.9 0.00 0.00 0.00 31 1005.1
20260509002002 23 337 3.2 9.7 0.00 0.00 0.00 30 1005.0
20260509001510 22 296 1.6 6.4 0.00 0.00 0.00 35 1005.1
20260509001004 22 336 3.2 6.4 0.00 0.00 0.00 35 1005.1
20260509000509 22 346 0.0 4.8 0.00 0.00 0.00 38 1005.1
20260509000005 22 348 0.0 3.2 0.00 0.00 0.00 37 1005.2
20260508235502 22 348 0.0 4.8 0.00 0.00 0.00 39 1005.1
20260508235002 22 348 0.0 4.8 0.00 0.00 0.00 40 1005.2
20260508234506 21 349 0.0 4.8 0.00 0.00 0.00 43 1005.2
20260508234008 21 227 0.0 4.8 0.00 0.00 0.00 41 1005.2
20260508233505 21 315 0.0 3.2 0.00 0.00 0.00 41 1005.2
20260508233012 21 315 0.0 3.2 0.00 0.00 0.00 44 1005.3
20260508232504 22 315 0.0 8.0 0.00 0.00 0.00 38 1005.3
20260508232009 22 309 0.0 8.0 0.00 0.00 0.00 36 1005.4
20260508231510 22 338 0.0 4.8 0.00 0.00 0.00 34 1005.3
20260508231008 23 338 0.0 6.4 0.00 0.00 0.00 33 1005.3
20260508230502 23 320 3.2 6.4 0.00 0.00 0.00 32 1005.2
20260508230008 23 355 1.6 4.8 0.00 0.00 0.00 34 1005.2
20260508225512 23 336 0.0 6.4 0.00 0.00 0.00 32 1005.3
20260508225003 23 328 1.6 6.4 0.00 0.00 0.00 32 1005.3
20260508224512 23 319 1.6 16.1 0.00 0.00 0.00 34 1005.3
20260508224005 24 318 6.4 16.1 0.00 0.00 0.00 31 1005.4
20260508223505 24 298 3.2 11.3 0.00 0.00 0.00 33 1005.4
20260508223030 24 252 1.6 14.5 0.00 0.00 0.00 31 1005.4
20260508222507 23 244 3.2 14.5 0.00 0.00 0.00 30 1005.5
20260508222009 24 246 3.2 14.5 0.00 0.00 0.00 29 1005.5
20260508221507 25 234 3.2 11.3 0.00 0.00 0.00 31 1005.4
20260508221010 25 238 4.8 11.3 0.00 0.00 0.00 29 1005.5
20260508220506 25 132 0.0 12.9 0.00 0.00 0.00 27 1005.5
20260508220014 25 278 4.8 12.9 0.00 0.00 0.00 31 1005.6
20260508215503 25 87 1.6 12.9 0.00 0.00 0.00 30 1005.6
20260508215006 25 144 3.2 12.9 0.00 0.00 0.00 29 1005.7
20260508214516 25 257 0.0 8.0 0.00 0.00 0.00 27 1005.7
20260508214008 25 51 1.6 9.7 0.00 0.00 0.00 27 1005.7
20260508213505 26 253 3.2 9.7 0.00 0.00 0.00 29 1005.9
20260508213017 25 288 3.2 8.0 0.00 0.00 0.00 29 1005.9
20260508212506 25 137 1.6 11.3 0.00 0.00 0.00 27 1005.9
20260508212005 25 333 3.2 11.3 0.00 0.00 0.00 31 1005.9
20260508211513 24 167 0.0 11.3 0.00 0.00 0.00 28 1005.9
20260508211003 25 321 4.8 11.3 0.00 0.00 0.00 30 1006.0
20260508210508 25 347 3.2 11.3 0.00 0.00 0.00 36 1006.1
20260508210009 25 336 3.2 11.3 0.00 0.00 0.00 30 1006.1
20260508205502 23 340 1.6 14.5 0.00 0.00 0.00 32 1006.3
20260508205003 24 277 4.8 14.5 0.00 0.00 0.00 28 1006.3
20260508204508 25 278 0.0 17.7 0.00 0.00 0.00 35 1006.4
20260508204006 25 323 4.8 17.7 0.00 0.00 0.00 30 1006.5
20260508203503 25 313 0.0 12.9 0.00 0.00 0.00 34 1006.5
20260508203006 25 293 4.8 12.9 0.00 0.00 0.00 29 1006.6
20260508202503 25 324 4.8 12.9 0.00 0.00 0.00 26 1006.7
20260508202006 25 297 3.2 14.5 0.00 0.00 0.00 28 1006.7
20260508201505 25 275 1.6 14.5 0.00 0.00 0.00 28 1006.8
20260508201008 25 324 4.8 14.5 0.00 0.00 0.00 32 1006.9
20260508200504 24 331 1.6 8.0 0.00 0.00 0.00 31 1006.9
20260508200016 24 344 1.6 8.0 0.00 0.00 0.00 29 1007.2
20260508195508 23 206 1.6 8.0 0.00 0.00 0.00 29 1007.2